sat.trackr.live / text

‹ back to catalog

STARLINK-3299

NORAD 50831 · 2022-001AE

PAYLOAD ACTIVE UNKNOWN

§ Identity

Operator
Country
US
Launch date
2022-01-06
Launch site
AFETR
Launch vehicle
Mass (kg)
RCS (m²)

Purposes: comms

External: N2YO · Heavens-Above · Gunter

§ Orbital elements

Epoch: 2026-09-19T22:44:17.620224Z

Period
93.88 min
Inclination
53.1601°
Eccentricity
0.0001991
Mean motion
15.33890809 rev/d
Perigee alt
462.9 km
Apogee alt
465.6 km
Semi-major
6,842.4 km
B*
6.5398e-4
RAAN
5.2915°
Arg perigee
356.1487°
Mean anomaly
3.9499°
Rev number
25,989

§ Raw data

STARLINK-32991 50831U 22001AE  26262.94742616  .00021430  00000+0  65398-3 0  99922 50831  53.1601   5.2915 0001991 356.1487   3.9499 15.33890809259894

JSON: /api/v1/satellites/50831 · /tle

For live sub-satellite position, see the globe view (requires WebGL).

§ Visibility from observer

Set your observer location to see the next 7 days of passes ≥ 10°. The values pass through the URL so the page stays shareable.

No JS? Fill the form by hand. The geolocation button needs JavaScript.